STARLINK-3941 (52638 NORAD) Tracking and Keplerian Element Data
This shows tracking and keplerian element data for the satellite.
Feedback or suggestion? Click here.
Element | Value |
Catalog | 52638 |
Name | STARLINK-3941 |
Epoch Orbit | 130 |
Epoch Day | 167.08334491 |
Epoch Year | 2022 |
RAAN | 279.9998 |
Inclination | 53.2135 |
Eccentricity | 0.0001444 |
Argument of Perigee | 32.1846 |
Mean Anonmoly | 5.7089 |
Mean Motion | 15.73190595 |
Decay Rate | 0.00024352 |
L1 | 1 52638U 22052AS 22167.08334491 .00024352 00000+0 17749-3 0 9991 |
L2 | 2 52638 53.2135 279.9998 0001444 32.1846 5.7089 15.73190595 1303 |
Live tracking and technical data element details for STARLINK-3941 (NORAD 52638). STARLINK-3941 can be tracked NOW for your location showing map with azimuth and elevation plus other details from your city location.
Track the satellite on the map from your city or location and see movement details for azimuth, elevation, latitude, longitude, range, height, and movement on the map or in text.
IsCatalogInMostPopularTable: catalog: 52638, numindb: 2
Update: records affected: 1
GetName: 52638 STARLINK-3941
Hit Count: updated at: Sat, 25 Jun 2022 04:18:55 GMT